Theta_e
341 341 340 341 343 342 342 344 344 345 344 345 345 345 345 343 343 342 342 342 342 343 342 340 342 343 343 344 343 343 342 342 343 342 342 343 343 344 344 344 345 344 345 344 343 343 344 343 344 346 347 348 348 344 342 342 339 338 340 335 338 339
339 340 342 341 341 342 343 342 344 343 345 345 345 345 344 343 343 341 340 341 341 343 342 340 341 345 344 344 343 343 343 343 344 342 342 343 342 342 343 343 344 345 344 344 343 340 338 342 345 345 347 347 344 341 345 343 344 340 338 337 337 342
338 339 340 339 342 341 341 340 339 339 341 342 341 340 339 341 340 341 342 341 343 343 342 342 342 341 344 345 344 343 345 345 345 345 344 344 343 343 343 344 344 343 344 344 341 338 334 333 338 344 347 345 340 342 346 342 344 343 339 339 337 345
338 337 339 341 340 341 341 338 336 336 341 341 340 340 338 339 342 339 339 342 343 342 342 342 346 348 347 346 345 346 347 346 346 346 346 345 344 345 344 345 345 345 343 342 338 334 339 338 336 338 339 340 342 346 346 345 342 343 342 343 339 346
337 338 336 336 335 337 338 340 338 339 340 345 345 340 341 340 339 341 338 340 339 342 342 342 344 344 344 347 347 347 348 346 347 346 347 344 344 341 344 339 339 342 341 338 335 344 339 340 344 340 343 345 346 344 346 344 345 347 345 342 343 345
336 336 336 336 337 336 338 336 337 340 342 343 345 344 344 346 345 342 342 339 339 340 341 341 341 342 344 345 344 346 346 347 348 348 348 346 346 347 346 340 339 341 340 350 347 349 346 344 341 338 340 345 346 345 347 346 348 349 343 344 342 344
337 336 335 335 336 335 336 337 336 339 344 345 349 345 345 348 347 345 346 343 335 337 339 339 339 340 342 342 342 344 344 342 344 344 345 346 344 343 343 344 345 344 343 344 343 344 343 342 341 340 345 342 344 342 344 342 344 346 347 344 344 345
340 340 338 338 336 336 337 336 338 343 346 348 349 346 349 349 347 349 347 347 345 339 335 333 334 336 341 339 341 341 342 343 341 342 344 345 340 342 343 342 341 340 342 342 341 339 340 340 339 339 341 343 343 343 343 343 343 344 346 344 343 345
340 340 342 345 341 344 345 346 345 346 346 347 345 345 348 348 348 350 344 343 345 344 342 340 340 336 337 336 339 339 342 343 341 340 344 342 341 338 338 341 342 340 339 340 339 337 338 338 343 344 341 340 339 340 339 340 344 343 346 344 344 344
339 339 341 343 343 344 345 345 346 345 346 345 344 346 348 347 347 338 339 342 345 344 343 343 339 338 336 342 341 343 343 339 339 342 342 340 340 339 337 341 338 336 337 338 339 337 336 338 339 342 344 343 340 340 340 342 342 342 340 342 342 342
340 341 342 342 342 342 344 342 344 345 345 344 343 343 345 343 336 336 337 341 342 344 341 345 343 339 340 342 338 338 338 344 338 336 336 338 337 338 337 339 339 337 336 338 338 336 337 335 336 336 338 339 340 339 339 339 341 335 338 338 338 342
339 341 342 342 342 341 340 341 341 341 342 341 343 341 336 335 338 339 339 341 342 344 345 344 344 340 338 341 336 338 338 342 343 341 340 336 333 334 334 337 335 335 338 341 340 339 338 340 337 335 336 336 336 338 337 342 339 337 339 339 338 337
337 338 340 340 341 341 341 338 341 340 340 340 340 336 335 335 339 341 342 341 341 342 344 341 345 342 339 339 343 340 336 339 337 341 341 342 338 341 338 339 338 337 338 338 340 341 336 337 339 339 339 334 337 335 337 337 338 335 339 337 338 339
338 339 339 341 341 340 341 341 341 340 341 340 339 339 340 342 344 343 342 343 342 339 340 345 342 342 340 339 341 339 338 336 337 339 345 340 338 338 339 335 335 333 334 334 332 334 338 333 333 337 338 336 342 336 336 339 339 337 340 340 339 339
337 338 339 339 339 339 340 338 339 341 340 341 343 341 343 341 340 347 344 341 340 341 342 339 340 341 339 341 339 340 335 336 338 339 334 341 338 337 341 339 337 332 332 333 330 330 329 339 333 333 333 338 333 334 334 334 336 336 340 339 340 339
336 336 339 340 339 340 340 340 341 337 341 337 339 339 341 345 339 340 339 338 340 340 341 339 341 340 340 338 334 337 336 337 341 339 340 340 339 336 335 341 340 338 334 328 329 326 331 330 335 335 333 334 336 337 335 336 337 336 335 337 337 338
337 337 338 340 340 340 342 340 340 339 340 339 339 337 340 344 340 337 340 337 343 342 339 339 339 339 339 337 333 333 337 337 340 340 339 341 337 336 334 333 335 336 338 332 326 324 326 330 334 332 332 333 334 337 334 335 336 337 334 335 337 336
338 339 339 341 342 343 344 341 341 341 342 341 341 338 340 342 336 337 338 338 339 339 340 338 339 338 339 336 336 335 336 337 338 339 335 337 336 337 337 336 334 334 334 330 329 327 325 326 326 327 331 332 336 333 334 335 336 338 336 335 336 336
338 339 339 343 342 343 343 342 340 341 340 339 340 341 342 335 338 337 338 339 339 339 339 338 337 338 339 335 335 337 336 336 338 337 336 334 331 335 335 336 334 330 334 331 332 332 330 330 330 329 329 330 332 333 334 336 336 334 336 336 335 336
340 341 341 340 338 337 339 337 335 338 336 337 336 337 338 339 338 337 340 340 339 341 339 338 337 338 339 339 337 336 337 336 336 335 336 334 334 331 332 334 333 330 330 330 334 330 331 330 330 334 332 332 333 333 334 335 334 334 334 333 333 334
339 340 339 335 336 336 334 333 338 338 336 340 338 337 336 336 335 339 339 336 338 343 340 341 341 339 337 338 339 338 337 337 335 335 335 335 336 333 333 335 333 334 329 327 331 331 335 332 331 330 331 331 330 332 334 334 332 332 332 332 333 332
339 341 341 341 341 340 341 340 340 334 336 336 334 337 335 336 336 338 341 341 342 341 341 342 341 340 340 336 337 338 337 337 336 334 336 335 334 337 334 332 332 331 330 329 329 329 335 330 329 325 325 326 326 329 333 332 331 331 332 332 332 331
339 338 340 340 338 344 339 347 340 340 337 332 335 336 334 339 341 340 341 342 338 337 334 337 336 340 337 335 336 337 337 338 337 334 335 335 334 334 333 332 330 329 328 330 330 332 334 331 326 327 327 324 320 319 324 327 330 330 331 331 330 329
338 339 339 341 344 340 343 343 343 342 342 340 334 339 339 340 339 339 338 338 340 339 336 334 333 329 335 337 339 334 335 337 337 336 333 332 332 329 331 331 329 329 329 325 325 327 331 333 331 326 320 321 323 322 316 317 322 327 330 329 328 327
339 341 339 342 341 340 339 341 341 340 339 339 340 340 338 336 336 337 337 336 336 340 338 333 337 338 329 334 338 337 335 334 336 336 334 331 330 326 331 329 330 329 328 327 325 327 329 331 330 334 327 322 321 317 317 320 321 321 327 324 327 326
340 343 339 339 340 341 341 339 339 336 335 336 335 336 333 333 335 339 337 337 337 335 337 337 332 335 335 332 334 338 335 329 336 333 335 334 332 329 328 328 327 328 327 330 328 326 325 331 332 334 331 329 328 321 317 321 321 313 324 325 326 324
338 340 337 339 340 342 340 341 338 336 336 334 333 333 336 342 339 337 340 341 339 340 334 336 337 330 333 336 335 334 335 336 326 336 338 336 332 329 327 328 328 328 327 329 329 325 325 325 329 330 331 332 332 332 327 322 317 318 314 319 323 322
338 339 338 339 341 341 338 338 337 336 334 334 335 331 335 338 338 338 338 339 342 336 337 338 337 336 327 335 329 335 331 334 333 328 330 334 332 333 332 331 330 331 329 329 329 326 325 326 325 326 330 332 331 328 326 327 324 320 319 313 315 321
340 339 340 340 339 340 342 339 337 337 337 338 335 335 336 334 337 338 336 339 339 334 336 335 336 334 331 333 334 335 333 330 334 334 329 336 330 334 332 331 330 329 329 327 329 329 328 326 328 327 326 327 329 326 328 328 327 325 320 315 314 315
336 340 340 340 340 339 339 339 338 338 336 337 335 334 334 334 336 335 336 337 340 340 339 338 337 336 333 329 331 330 328 331 335 330 331 331 332 332 330 330 329 330 330 327 329 328 328 328 329 329 327 327 325 325 326 324 323 323 321 321 314 314
335 339 339 338 337 337 338 339 336 336 335 333 334 334 336 330 335 333 334 334 335 337 339 337 340 343 333 331 333 333 331 330 331 333 331 331 329 328 329 331 332 330 329 327 328 327 329 329 328 328 327 328 327 326 324 322 322 323 320 318 315 316
334 335 337 336 336 336 337 337 338 338 335 335 333 329 332 328 331 328 331 334 335 338 334 338 335 340 331 331 333 334 333 333 331 332 330 332 331 330 328 328 330 329 329 328 329 326 328 327 327 327 326 327 326 327 327 325 326 324 321 318 317 315
333 334 336 337 337 337 338 336 335 336 336 337 334 333 332 333 333 333 334 333 333 332 333 331 331 337 329 330 338 338 338 337 338 337 333 332 332 332 330 328 328 328 328 326 325 326 328 326 327 326 326 328 327 326 326 328 329 327 323 320 318 316
334 336 337 338 337 337 337 338 338 336 336 336 336 335 335 334 334 336 336 335 333 333 333 334 332 332 332 333 334 330 330 334 333 333 331 332 331 330 330 327 324 327 325 327 325 327 326 327 328 328 328 327 325 326 327 329 328 327 324 320 317 316
334 335 336 335 336 335 336 337 337 336 336 337 336 336 337 336 337 334 336 334 334 334 334 332 332 330 330 333 331 336 330 333 333 329 329 331 329 328 331 327 327 327 328 328 325 327 325 325 327 325 327 327 326 327 327 328 329 326 326 322 320 318
334 335 336 336 336 336 335 337 337 336 335 336 336 336 336 336 338 337 335 334 334 334 335 333 330 330 328 330 330 330 328 330 328 329 330 328 328 326 328 327 327 326 325 326 325 325 325 323 325 325 328 326 326 325 327 328 329 329 327 326 324 323
334 334 334 335 336 336 337 337 337 336 336 335 334 334 334 335 335 336 336 335 335 333 335 332 329 332 326 331 329 329 331 331 327 327 325 328 324 327 323 325 326 326 327 327 326 324 324 324 325 325 326 325 325 326 325 329 328 328 327 327 326 325
Wind_Speed
5 5 3 3 3 3 4 7 6 7 7 6 6 7 9 8 6 5 4 3 4 4 5 4 3 4 0 3 3 1 1 1 2 2 3 4 4 5 5 7 6 7 8 8 6 7 8 9 9 9 9 8 9 5 3 3 6 3 1 6 7 6
4 4 3 2 2 1 1 4 2 3 2 3 4 6 6 4 4 0 4 4 4 3 2 3 4 4 3 3 4 4 4 4 4 4 3 4 5 5 6 7 8 8 9 7 8 4 4 8 11 11 9 9 5 5 2 3 3 5 2 7 6 9
4 4 4 4 3 3 4 5 7 5 5 4 4 8 5 4 4 4 4 5 2 2 3 3 3 4 4 6 3 5 6 6 6 6 5 6 5 7 7 8 9 10 9 9 4 3 5 4 3 9 9 5 5 4 2 3 4 2 4 6 5 13
3 3 2 3 3 3 3 4 4 1 2 1 2 7 4 3 2 2 3 4 4 4 1 3 6 7 5 2 2 6 7 6 7 7 7 5 7 8 9 10 11 10 7 5 3 4 1 4 5 4 2 5 4 2 1 2 3 3 2 1 4 14
2 3 4 3 2 2 2 2 0 2 4 3 0 6 5 7 6 7 4 3 2 2 3 3 4 2 3 2 2 2 1 3 3 4 6 4 3 4 6 6 5 6 4 5 6 1 1 1 1 3 5 3 1 2 0 2 2 3 3 5 4 11
4 1 3 3 2 0 1 2 1 2 3 2 3 3 4 3 4 5 7 8 4 1 2 3 4 4 5 2 2 2 1 2 2 1 3 2 3 3 3 3 4 2 1 2 2 1 0 1 3 5 5 0 1 1 1 1 2 3 4 4 6 9
5 3 5 2 1 1 1 1 1 3 3 1 2 3 3 1 2 6 5 9 10 3 3 5 6 5 5 4 5 4 3 2 1 2 2 2 4 4 4 4 4 6 4 3 3 1 4 4 5 5 2 1 0 1 2 2 3 1 0 5 7 10
5 7 9 10 11 10 9 8 8 4 1 1 1 2 2 2 0 0 1 2 5 8 11 7 6 4 5 5 5 4 4 3 2 2 1 2 2 5 5 5 5 5 5 3 4 5 4 5 5 4 3 0 0 0 3 2 3 2 1 4 6 8
4 4 2 2 3 2 2 3 3 2 2 2 3 3 1 1 0 1 4 4 2 2 2 1 2 5 5 6 6 4 5 4 4 3 3 2 3 4 5 4 2 4 4 2 3 4 4 5 2 1 3 2 1 2 4 4 2 2 2 6 6 6
4 3 2 2 1 1 1 1 2 3 2 3 3 2 2 1 2 5 4 3 2 2 1 2 3 5 4 2 2 2 5 3 3 2 1 2 3 2 5 4 3 4 6 3 3 6 3 3 2 4 3 4 3 5 5 5 5 8 8 4 3 4
5 3 2 2 2 2 2 3 4 3 3 4 3 3 2 3 5 4 4 4 3 2 2 2 2 4 4 2 3 4 4 2 4 3 1 2 5 5 6 7 5 5 5 5 5 6 4 3 6 6 4 2 4 6 5 4 4 7 2 4 2 1
2 1 1 3 2 2 3 3 3 3 3 3 3 3 4 4 3 3 3 4 5 2 2 3 3 4 4 2 3 3 3 2 2 2 6 12 12 10 10 9 6 8 10 4 4 5 6 4 4 3 7 9 6 8 7 2 5 7 4 4 1 2
1 0 2 2 2 2 2 2 2 2 2 3 3 3 4 3 2 2 2 3 4 3 3 4 3 3 5 2 2 3 3 4 4 3 3 3 3 3 4 5 9 7 5 4 3 4 3 4 1 3 1 7 10 9 4 5 4 3 3 1 2 2
1 2 1 2 1 1 2 2 2 3 2 2 3 1 2 2 2 1 1 2 3 4 3 2 3 3 4 4 2 3 3 4 4 3 2 3 3 4 2 5 5 6 4 4 4 4 4 3 4 5 3 4 1 3 6 4 5 5 3 2 1 1
1 1 1 2 1 2 2 2 2 0 2 1 1 2 2 2 4 0 2 4 3 3 3 4 3 3 4 4 3 2 4 3 3 4 6 2 4 4 1 2 3 4 5 5 6 5 3 1 1 2 3 3 2 7 9 6 7 4 3 1 1 3
0 1 1 1 1 2 2 2 2 2 1 1 3 2 3 0 2 2 3 3 3 4 3 4 3 3 5 4 4 3 4 3 2 3 3 4 3 3 4 2 2 2 3 5 6 6 4 3 2 2 4 5 4 3 9 7 6 5 3 2 3 3
4 3 3 4 4 4 3 2 2 2 2 2 3 4 3 2 2 4 3 3 2 2 3 3 3 3 5 4 4 5 3 4 3 3 4 4 3 4 5 6 6 5 2 3 4 6 5 6 3 4 4 4 4 3 7 7 5 6 4 2 1 2
5 5 4 3 2 2 1 2 2 2 4 3 0 4 3 2 4 4 4 3 3 3 3 3 3 4 5 5 3 3 3 5 3 3 5 4 4 3 3 3 4 5 5 4 3 3 4 6 5 4 4 5 5 5 5 7 5 4 4 4 3 4
6 5 4 2 3 2 2 2 2 1 2 1 2 1 2 4 3 4 4 3 3 4 3 4 4 4 3 5 4 3 4 5 3 4 4 4 6 3 4 3 4 5 4 4 3 3 5 6 5 4 6 6 6 10 9 7 6 6 4 4 4 4
4 4 3 4 3 3 2 2 1 2 1 3 3 3 3 3 3 3 2 2 3 2 2 3 3 3 3 2 3 3 4 5 4 4 3 3 3 4 4 4 4 6 5 3 2 4 4 4 3 3 5 10 10 8 7 5 6 6 4 3 4 4
4 4 4 4 3 3 3 3 2 1 2 2 2 1 2 4 3 2 3 4 3 2 2 0 2 2 3 3 2 3 4 3 4 3 4 3 3 3 4 3 4 3 6 6 3 3 3 3 2 1 5 9 9 7 5 5 6 6 5 4 4 6
4 3 3 2 3 3 2 2 2 3 3 3 4 2 3 2 3 2 2 1 0 2 2 1 0 2 2 4 3 3 3 3 3 4 3 3 4 3 3 4 5 4 4 4 4 2 2 2 1 3 1 4 6 2 3 5 6 6 5 5 4 4
3 4 4 4 3 2 2 1 1 2 2 4 4 4 4 2 2 1 1 1 3 3 4 3 4 2 2 3 4 3 2 2 2 4 4 3 3 3 4 5 5 5 5 4 4 3 3 4 2 3 3 3 4 2 1 3 4 4 5 4 4 5
4 4 2 2 0 3 2 3 3 3 3 3 3 2 3 2 2 2 2 1 1 2 3 3 3 6 3 2 2 4 4 1 2 3 5 4 4 5 4 4 5 6 4 5 6 6 3 3 3 3 3 1 1 3 4 3 2 2 3 5 5 6
3 2 3 2 3 4 2 2 3 3 3 3 2 3 2 2 1 1 2 2 2 1 1 2 2 2 4 2 1 0 2 3 2 2 3 4 3 6 3 4 5 5 6 5 6 5 3 4 3 3 1 2 1 2 2 3 2 3 3 4 4 5
3 2 3 3 3 2 2 3 2 3 3 2 2 3 3 3 3 1 1 2 2 2 2 2 4 2 2 2 3 1 1 4 0 2 1 1 3 5 5 5 5 5 5 6 4 5 5 3 4 3 3 6 1 2 3 1 1 2 1 3 3 6
3 3 3 3 3 2 2 3 3 3 3 4 4 1 2 1 2 2 1 1 2 2 0 1 2 4 3 1 2 3 1 1 5 1 1 1 2 4 4 4 5 5 5 4 5 5 6 5 5 4 3 2 4 1 4 3 2 4 3 3 3 3
3 3 3 4 4 4 4 4 4 5 5 4 3 3 3 2 2 2 2 2 1 4 1 1 1 1 4 1 1 1 3 2 2 5 5 2 1 2 3 2 4 5 4 6 4 5 5 5 6 6 5 3 3 8 4 3 3 3 3 4 2 4
2 3 3 3 3 3 2 3 3 2 2 2 3 3 3 3 3 2 2 2 1 3 3 2 1 0 1 2 2 1 2 4 1 2 4 2 3 1 2 3 2 3 3 5 4 4 4 5 5 4 4 4 4 4 1 2 2 2 1 4 4 4
3 2 2 2 2 3 4 4 3 3 4 3 4 5 4 4 3 3 3 3 2 2 1 2 0 1 1 2 2 3 4 1 2 4 4 3 3 3 4 3 3 3 3 3 3 5 3 4 4 4 4 4 4 3 2 1 2 2 3 1 4 5
3 2 2 2 3 3 4 3 4 4 4 3 4 4 3 3 4 3 3 4 3 3 2 2 1 2 2 2 2 2 1 2 4 2 4 3 4 3 4 2 2 3 3 4 4 4 3 3 5 4 5 4 3 2 3 2 1 2 1 2 5 4
4 4 3 4 4 5 3 4 4 4 4 4 4 4 5 5 5 6 4 3 3 1 3 2 2 1 3 1 2 1 2 2 3 1 3 2 2 3 3 5 3 3 2 3 3 4 3 3 4 5 5 4 4 4 5 2 2 4 3 5 4 4
5 5 4 4 6 5 3 3 4 4 4 4 5 4 5 4 4 4 4 4 4 4 3 4 3 1 3 3 1 1 0 1 0 1 1 0 2 2 3 3 3 3 3 3 4 3 2 3 3 3 4 3 4 4 4 0 1 3 5 5 7 5
6 4 4 4 4 4 4 4 4 4 4 5 5 4 4 4 4 2 3 3 4 4 3 2 3 2 1 1 1 3 1 1 0 1 2 1 2 2 1 2 4 2 4 2 3 2 3 2 2 2 2 3 3 4 4 2 2 3 4 5 5 4
6 5 5 6 4 5 4 5 5 5 5 4 5 5 4 4 4 4 3 4 4 4 2 4 3 3 2 1 1 0 2 2 1 1 1 2 0 2 1 3 2 3 2 2 3 3 4 4 1 2 1 2 2 2 3 3 2 2 3 5 5 5
7 6 6 6 6 5 6 5 6 6 6 5 4 4 4 4 3 4 4 4 4 3 3 4 3 3 2 3 3 2 4 1 2 2 1 2 1 2 2 2 1 2 3 2 3 2 3 4 3 1 1 2 2 2 3 4 2 2 2 2 3 4
6 6 6 7 7 7 6 7 6 6 5 5 6 5 5 5 4 4 3 4 4 4 3 4 4 2 4 2 3 3 2 2 3 3 4 1 3 1 4 2 1 2 1 2 3 3 3 4 3 5 4 4 3 2 3 3 2 3 3 2 2 2
Wind_Direction
78 73 83 63 32 86 104 110 105 116 119 117 113 103 107 91 94 90 107 77 37 23 9 354 17 335 141 239 210 104 227 164 253 215 206 209 218 230 234 245 251 254 257 260 268 274 275 275 272 271 272 276 284 295 278 322 316 266 91 122 113 121
57 46 39 41 69 59 72 81 106 102 129 148 138 115 82 55 57 35 59 46 38 18 17 351 311 292 284 245 179 206 204 220 223 237 232 242 240 239 248 252 255 258 258 265 271 285 260 252 259 263 267 275 284 263 300 312 270 333 311 94 112 138
70 37 31 29 7 17 62 32 6 10 350 334 79 68 26 25 25 15 33 58 51 193 181 206 254 260 253 272 257 190 215 224 226 230 230 237 242 246 249 256 252 257 259 262 268 253 273 256 234 244 261 272 255 262 5 337 321 306 36 9 112 147
82 65 51 29 9 354 48 132 169 209 223 193 211 107 111 58 56 1 2 57 24 344 46 317 267 247 255 279 251 200 221 226 235 237 242 243 239 243 248 252 257 253 261 258 243 249 261 26 339 320 258 238 252 317 36 279 302 357 13 146 138 152
84 94 83 67 11 346 346 68 84 223 282 282 39 114 111 136 154 140 138 80 79 269 334 330 284 286 289 276 270 224 211 239 233 233 220 243 243 245 209 242 242 232 228 236 233 227 73 17 346 274 257 236 348 341 333 287 304 293 77 65 114 155
93 85 129 144 157 274 329 331 313 259 201 260 40 78 135 171 155 126 164 126 159 353 326 294 273 284 276 267 256 268 249 330 328 314 354 305 324 315 312 269 278 285 190 318 347 143 107 131 240 231 240 47 114 286 339 291 300 311 91 120 148 158
133 102 121 120 305 263 202 250 338 257 255 191 180 150 135 155 141 173 175 144 146 169 284 226 237 221 224 209 219 218 222 211 220 333 335 322 302 301 286 283 297 287 282 285 334 244 226 212 229 242 185 158 121 200 269 314 292 261 134 129 145 148
150 160 157 169 166 171 167 180 183 186 105 94 138 79 71 106 171 106 70 87 90 139 168 235 256 238 196 203 211 201 208 163 196 186 254 270 306 298 279 269 281 285 289 247 247 258 215 216 239 262 86 131 233 67 311 294 246 308 18 111 132 140
121 110 127 162 150 155 145 149 143 134 115 50 65 76 6 100 63 231 66 25 39 91 342 166 188 206 211 222 212 199 183 176 180 159 170 223 246 291 290 275 290 282 267 229 245 253 244 239 229 120 198 112 358 324 214 206 293 340 359 55 73 109
135 131 136 169 89 68 24 93 56 68 57 49 47 360 350 7 15 31 38 12 18 41 352 55 333 316 301 335 304 200 157 189 179 176 139 301 277 220 285 272 245 271 271 243 227 262 269 253 90 255 132 133 84 288 293 30 352 25 13 35 123 139
143 156 188 131 109 70 52 45 28 27 41 40 20 358 311 45 34 33 16 352 333 52 354 44 351 306 324 316 11 14 346 163 162 169 167 338 299 301 271 265 214 231 253 212 201 233 241 329 225 205 140 94 68 292 296 117 93 76 230 216 70 88
100 133 89 85 84 76 60 44 30 37 28 22 3 349 3 39 39 32 24 351 330 36 341 20 4 345 334 349 37 12 321 17 359 100 160 177 189 217 221 228 244 227 228 213 212 206 185 176 246 196 163 124 157 234 243 126 120 148 180 26 26 35
139 12 74 78 43 53 49 53 52 43 45 13 12 3 20 25 11 19 39 357 331 11 14 16 16 352 324 360 45 33 346 7 31 29 317 6 332 228 236 188 201 218 224 231 212 209 202 212 139 13 83 140 146 203 241 72 95 56 65 150 4 31
180 134 106 74 77 64 19 56 25 39 25 1 352 2 33 358 291 211 113 328 355 11 2 349 30 349 329 326 25 62 13 26 360 305 311 40 308 299 339 344 0 338 332 292 243 202 202 213 168 181 157 125 113 109 96 116 124 126 126 65 43 52
94 71 91 117 174 82 77 43 36 20 66 259 288 353 316 234 240 68 70 71 15 10 356 10 21 357 323 309 15 48 32 22 349 352 13 355 299 283 18 347 4 335 335 321 329 296 181 140 84 350 72 81 108 148 116 112 111 80 81 133 181 92
146 140 103 110 87 97 119 219 209 130 59 216 226 216 235 5 331 59 60 61 27 9 359 11 13 359 328 332 32 14 51 357 3 4 2 311 308 344 353 24 23 277 323 324 314 323 2 61 56 67 66 43 45 58 106 107 109 108 93 46 52 63
174 200 194 191 176 181 188 212 82 199 201 228 265 238 213 184 88 54 39 61 26 23 357 21 3 11 343 334 43 10 31 342 11 355 356 322 10 14 11 360 336 307 233 317 319 317 342 360 346 94 119 82 51 24 102 115 104 101 125 174 151 106
182 195 186 192 172 152 160 156 179 219 216 224 287 26 3 38 71 49 34 38 29 0 13 6 14 13 359 343 29 41 3 334 24 6 2 340 352 56 14 354 332 327 2 326 305 342 354 31 354 341 73 83 69 46 53 96 116 116 105 103 105 96
181 172 158 149 139 137 132 222 220 226 16 38 144 30 359 50 28 62 43 37 32 357 25 356 13 12 15 352 357 25 20 340 18 22 13 356 351 15 15 343 352 338 335 317 330 330 32 20 352 355 52 50 41 49 48 67 90 81 72 72 82 88
140 149 153 159 159 161 181 120 152 223 207 19 25 32 14 42 51 52 64 61 43 21 10 355 16 24 346 6 1 3 23 1 349 31 355 4 0 354 4 346 354 332 314 301 335 18 35 14 339 355 66 58 49 52 55 65 80 95 112 96 80 74
155 151 170 164 196 168 183 181 184 137 111 223 67 81 37 18 51 64 36 26 18 16 330 65 359 43 355 9 6 13 18 15 347 20 341 357 355 15 359 337 344 326 340 342 11 47 57 19 309 289 96 88 60 19 34 52 68 71 63 61 63 70
163 173 170 189 200 209 214 171 167 152 197 176 177 169 125 88 34 42 16 47 112 315 328 315 211 73 24 18 1 7 35 7 1 353 341 351 348 21 2 357 4 349 352 338 326 40 56 23 353 18 44 114 84 64 20 51 67 68 83 78 91 90
168 193 208 176 184 157 7 346 168 78 73 59 36 50 68 79 84 53 338 36 23 346 345 342 350 104 70 37 359 338 52 9 14 345 336 354 351 6 12 7 10 353 349 339 328 52 31 67 346 2 278 179 133 122 293 22 45 61 75 90 79 80
181 205 120 171 206 82 63 40 43 55 59 67 81 89 125 163 166 152 110 10 56 45 339 355 20 334 80 74 13 2 335 111 28 16 342 1 8 345 29 0 15 2 355 356 357 352 1 52 27 27 14 356 210 137 118 87 66 29 79 80 82 90
192 154 148 114 88 105 112 92 73 67 79 114 179 194 151 120 162 109 110 42 348 45 25 342 22 329 12 25 73 310 343 321 85 42 16 348 24 342 7 25 9 13 3 14 355 336 344 25 45 48 326 345 353 60 60 137 113 51 353 82 97 125
177 139 119 142 124 158 152 134 151 138 153 218 177 197 189 181 201 162 91 166 105 338 32 17 333 360 112 16 334 340 29 329 235 99 59 13 7 3 354 24 16 17 0 18 352 343 354 350 6 28 36 104 296 157 173 199 225 116 314 46 84 67
162 161 147 152 165 159 185 149 172 182 194 202 193 165 101 2 109 150 168 319 179 166 358 91 327 3 354 98 3 301 331 28 345 346 107 66 28 32 351 6 13 16 7 349 15 2 351 355 357 30 26 50 159 210 140 135 137 129 124 356 18 59
166 156 168 152 203 195 176 173 185 218 207 208 164 151 187 165 164 133 199 208 269 161 147 59 59 33 331 55 313 355 322 92 27 342 3 71 25 66 356 33 22 1 6 350 21 15 352 359 14 351 358 356 12 44 81 135 166 150 122 135 103 65
182 150 164 161 216 181 218 177 180 251 215 219 135 163 177 166 190 179 163 179 341 342 110 76 356 169 337 333 322 25 264 53 17 8 340 4 16 47 38 18 34 8 9 5 2 7 9 358 6 349 340 3 11 100 94 72 94 64 129 132 127 131
224 180 154 193 219 188 210 176 201 213 235 184 175 191 193 171 164 170 202 150 168 224 328 131 341 29 341 341 21 315 3 83 42 28 340 333 353 26 24 8 354 15 23 7 14 358 357 359 353 339 18 15 14 16 92 60 52 74 73 45 130 144
228 221 180 199 226 230 212 206 203 211 225 194 208 186 200 164 181 188 200 163 190 184 173 130 177 239 73 341 19 353 359 345 56 18 323 8 28 23 347 350 9 6 356 27 358 342 348 26 2 355 5 45 24 30 57 48 8 56 71 93 95 97
220 234 203 202 228 239 216 213 224 214 217 223 210 189 213 187 202 186 192 175 158 207 182 165 153 217 99 293 230 19 342 32 66 3 327 35 36 16 4 1 348 355 332 28 353 349 341 30 32 2 7 359 10 20 63 56 1 81 67 80 98 144
221 221 234 222 223 234 224 213 236 226 216 222 219 210 207 211 211 198 174 167 172 203 175 189 143 232 148 194 199 169 345 162 203 160 218 38 4 9 43 352 338 328 358 31 340 309 321 30 47 28 8 348 4 41 77 19 66 86 97 126 137 139
241 222 217 234 238 239 231 242 234 231 228 215 224 231 207 212 197 211 186 181 180 192 187 160 160 162 19 260 112 131 195 336 237 283 73 8 353 331 113 58 328 314 30 24 317 354 8 23 20 61 54 14 351 39 39 84 12 38 96 121 146 159
238 238 241 235 229 252 248 241 238 235 231 225 214 223 240 226 189 197 198 187 182 179 171 190 145 130 171 188 172 25 16 210 172 113 340 29 303 283 49 64 331 350 342 346 327 359 353 353 59 352 59 64 342 32 51 83 54 59 80 128 151 151
239 247 241 252 253 238 252 241 240 237 236 237 220 215 222 230 211 203 192 194 178 169 181 140 134 151 171 239 144 175 194 97 24 342 41 210 76 266 85 67 335 332 332 13 320 356 29 340 328 329 305 114 49 13 60 89 37 67 79 118 161 151
263 249 245 246 245 248 251 259 262 253 241 234 236 227 211 214 215 198 211 198 173 177 158 146 143 186 153 239 147 214 186 156 160 189 219 179 207 58 52 3 289 328 13 334 318 39 343 328 333 356 24 23 33 20 37 101 116 77 84 109 117 69